Location: Kolin
(50.0330°N, 15.2000°E)
Time: 07:28:35
(UTC+02:00)

ISS - Visible Passes

Search period start: 18 May 2021 00:00
Search period end: 28 May 2021 00:00
Orbit: 417 x 422 km, 51.6° (Epoch: 18 May)

Date Brightness Start Highest point End Pass type
(mag) Time Alt. Az. Time Alt. Az. Time Alt. Az.
18 May -3.7 01:19:48 10° WNW 01:22:52 72° WNW 01:22:52 72° WNW visible
18 May -3.4 21:18:47 10° SW 21:22:00 43° SSE 21:25:13 10° E visible
18 May -3.5 22:55:23 10° W 22:58:44 71° N 23:02:06 10° ENE visible
19 May -3.7 00:32:20 10° WNW 00:35:43 75° N 00:36:27 50° E visible
19 May -1.1 02:09:15 10° W 02:09:23 11° W 02:09:23 11° W visible
19 May -3.7 22:07:53 10° WSW 22:11:15 82° NNW 22:14:38 10° ENE visible
19 May -3.5 23:44:51 10° WNW 23:48:13 67° N 23:50:16 21° E visible
20 May -2.0 01:21:43 10° WNW 01:23:12 23° W 01:23:12 23° W visible
20 May -3.3 22:57:21 10° W 23:00:42 64° N 23:04:03 10° E visible
21 May -3.6 00:34:14 10° WNW 00:37:06 59° W 00:37:06 59° W visible
21 May -3.3 22:09:49 10° W 22:13:11 65° N 22:16:33 10° E visible
21 May -3.9 23:46:45 10° WNW 23:50:08 89° NNE 23:51:03 45° ESE visible
22 May -1.1 01:23:48 10° W 01:23:59 11° W 01:23:59 11° W visible
22 May -3.4 21:22:18 10° W 21:25:39 71° N 21:29:02 10° ENE visible
22 May -3.6 22:59:16 10° WNW 23:02:39 75° NNE 23:05:02 18° E visible
23 May -2.2 00:36:10 10° W 00:37:58 25° W 00:37:58 25° W visible
23 May -3.4 22:11:46 10° WNW 22:15:08 67° N 22:18:30 10° E visible
23 May -3.6 23:48:38 10° WNW 23:51:56 53° SSW 23:51:59 53° SSW visible
24 May -3.8 23:01:08 10° WNW 23:04:29 72° SSW 23:06:00 30° ESE visible
25 May -1.2 00:38:29 10° W 00:38:57 12° W 00:38:57 12° W visible
25 May -3.8 22:13:38 10° WNW 22:17:01 89° NNE 22:20:04 12° ESE visible
25 May -2.3 23:50:41 10° W 23:53:01 25° SW 23:53:01 25° SW visible
26 May -3.0 23:03:03 10° W 23:06:12 37° SSW 23:07:05 31° S visible
27 May -3.5 22:15:29 10° WNW 22:18:47 53° SSW 22:21:12 17° SE visible
27 May -1.2 23:53:34 10° WSW 23:54:09 11° WSW 23:54:09 11° WSW visible
